Location: Academy at Carrie F Thomas
(32.8490°N, 97.2053°W)
Time: 07:47:49
(UTC+00:00)

Cosmos 2228 Rocket - Pass Details

Date: 11 July 2022
Orbit: 618 x 651 km, 82.5° (Epoch: 14 August)

Event Time Altitude Azimuth Distance (km) Brightness Sun altitude
Rises 10:11:30 0° 333° (NNW) 2,933 6.7 -14.5°
Reaches altitude 10° 10:14:21 10° 314° (NW) 2,027 5.6 -14.0°
Maximum altitude 10:17:19 18° 272° (W) 1,589 4.7 -13.6°
Enters shadow 10:18:02 17° 260° (W) 1,618 4.7 -13.4°
